| time (UTC) | temp C | wind direction | speed KPH | gust KPH | rain 1hr cm | rain 24hr cm | rain mn cm | humidity % | barometer mb |
| 20260831045330 | 23 | 250 | 0.0 | 4.8 | 0.00 | 0.00 | 0.00 | 96 | 1019.1 |
| 20260831044829 | 23 | 250 | 0.0 | 4.8 | 0.00 | 0.00 | 0.00 | 96 | 1019.2 |
| 20260831044332 | 23 | 250 | 0.0 | 0.0 | 0.00 | 0.00 | 0.00 | 96 | 1019.2 |
| 20260831043831 | 23 | 250 | 0.0 | 1.6 | 0.00 | 0.00 | 0.00 | 96 | 1019.3 |
| 20260831043329 | 23 | 250 | 0.0 | 1.6 | 0.00 | 0.00 | 0.00 | 96 | 1019.4 |
| 20260831042833 | 23 | 250 | 0.0 | 1.6 | 0.00 | 0.00 | 0.00 | 96 | 1019.2 |
| 20260831042331 | 23 | 250 | 0.0 | 1.6 | 0.00 | 0.00 | 0.00 | 96 | 1019.3 |
| 20260831041829 | 23 | 250 | 0.0 | 1.6 | 0.00 | 0.00 | 0.00 | 96 | 1019.3 |
| 20260831041330 | 23 | 250 | 0.0 | 0.0 | 0.00 | 0.00 | 0.00 | 95 | 1019.4 |
| 20260831040834 | 23 | 250 | 0.0 | 0.0 | 0.00 | 0.00 | 0.00 | 95 | 1019.3 |
| 20260831040331 | 23 | 250 | 0.0 | 4.8 | 0.00 | 0.00 | 0.00 | 95 | 1019.4 |
| 20260831035833 | 23 | 250 | 0.0 | 4.8 | 0.00 | 0.00 | 0.00 | 95 | 1019.3 |
| 20260831035334 | 23 | 250 | 0.0 | 3.2 | 0.00 | 0.00 | 0.00 | 95 | 1019.4 |
| 20260831034837 | 23 | 250 | 0.0 | 3.2 | 0.00 | 0.00 | 0.00 | 95 | 1019.4 |
| 20260831034339 | 23 | 250 | 0.0 | 3.2 | 0.00 | 0.00 | 0.00 | 95 | 1019.3 |
| 20260831033832 | 23 | 250 | 0.0 | 1.6 | 0.00 | 0.00 | 0.00 | 95 | 1019.5 |
| 20260831032838 | 23 | 250 | 0.0 | 1.6 | 0.00 | 0.00 | 0.00 | 95 | 1019.5 |
| 20260831032331 | 23 | 250 | 0.0 | 1.6 | 0.00 | 0.00 | 0.00 | 95 | 1019.5 |
| 20260831031332 | 23 | 250 | 0.0 | 1.6 | 0.00 | 0.00 | 0.00 | 94 | 1019.5 |
| 20260831030332 | 24 | 250 | 0.0 | 1.6 | 0.00 | 0.00 | 0.00 | 94 | 1019.7 |
| 20260831025331 | 24 | 250 | 0.0 | 0.0 | 0.00 | 0.00 | 0.00 | 94 | 1019.9 |
| 20260831024832 | 24 | 250 | 0.0 | 1.6 | 0.00 | 0.00 | 0.00 | 94 | 1020.0 |
| 20260831024332 | 24 | 250 | 0.0 | 1.6 | 0.00 | 0.00 | 0.00 | 94 | 1020.0 |
| 20260831023330 | 24 | 250 | 0.0 | 1.6 | 0.00 | 0.00 | 0.00 | 94 | 1019.9 |
| 20260831022839 | 24 | 250 | 0.0 | 1.6 | 0.00 | 0.00 | 0.00 | 94 | 1020.0 |
| 20260831022334 | 24 | 250 | 0.0 | 0.0 | 0.00 | 0.00 | 0.00 | 94 | 1020.0 |
| 20260831021332 | 24 | 250 | 0.0 | 1.6 | 0.00 | 0.00 | 0.00 | 93 | 1019.9 |
| 20260831020839 | 24 | 250 | 0.0 | 1.6 | 0.00 | 0.00 | 0.00 | 93 | 1019.9 |
| 20260831015833 | 24 | 250 | 0.0 | 0.0 | 0.00 | 0.00 | 0.00 | 93 | 1020.0 |
| 20260831014833 | 24 | 250 | 0.0 | 0.0 | 0.00 | 0.00 | 0.00 | 93 | 1020.1 |
| 20260831014334 | 24 | 250 | 0.0 | 0.0 | 0.00 | 0.00 | 0.00 | 92 | 1020.2 |
| 20260831013833 | 24 | 250 | 0.0 | 1.6 | 0.00 | 0.00 | 0.00 | 92 | 1020.2 |
| 20260831013334 | 25 | 250 | 0.0 | 1.6 | 0.00 | 0.00 | 0.00 | 92 | 1020.2 |
| 20260831012833 | 25 | 250 | 0.0 | 0.0 | 0.00 | 0.00 | 0.00 | 92 | 1020.3 |
| 20260831010830 | 25 | 250 | 0.0 | 3.2 | 0.00 | 0.00 | 0.00 | 91 | 1020.3 |
| 20260831005333 | 25 | 250 | 0.0 | 0.0 | 0.00 | 0.00 | 0.00 | 91 | 1020.1 |
| 20260831004832 | 25 | 250 | 0.0 | 3.2 | 0.00 | 0.00 | 0.00 | 91 | 1020.1 |
| 20260831004332 | 25 | 250 | 0.0 | 3.2 | 0.00 | 0.00 | 0.00 | 90 | 1019.9 |
| 20260831003830 | 25 | 250 | 0.0 | 1.6 | 0.00 | 0.00 | 0.00 | 90 | 1019.9 |
| 20260831002835 | 25 | 250 | 0.0 | 1.6 | 0.00 | 0.00 | 0.00 | 90 | 1019.9 |
| 20260831001837 | 25 | 250 | 0.0 | 1.6 | 0.00 | 0.00 | 0.00 | 89 | 1019.9 |
| 20260831001334 | 25 | 250 | 0.0 | 1.6 | 0.00 | 0.00 | 0.00 | 89 | 1019.9 |
| 20260831000330 | 25 | 250 | 0.0 | 1.6 | 0.00 | 0.00 | 0.00 | 89 | 1019.8 |
| 20260830235833 | 25 | 250 | 0.0 | 1.6 | 0.00 | 0.00 | 0.00 | 88 | 1019.9 |
| 20260830235331 | 25 | 250 | 0.0 | 3.2 | 0.00 | 0.00 | 0.00 | 88 | 1019.9 |
| 20260830234332 | 26 | 250 | 0.0 | 1.6 | 0.00 | 0.00 | 0.00 | 88 | 1019.7 |
| 20260830233838 | 26 | 250 | 0.0 | 3.2 | 0.00 | 0.00 | 0.00 | 88 | 1019.7 |
| 20260830233330 | 26 | 250 | 0.0 | 3.2 | 0.00 | 0.00 | 0.00 | 88 | 1019.8 |
| 20260830232831 | 26 | 250 | 0.0 | 1.6 | 0.00 | 0.00 | 0.00 | 88 | 1019.8 |
| 20260830232331 | 26 | 250 | 0.0 | 3.2 | 0.00 | 0.00 | 0.00 | 87 | 1019.8 |
| 20260830231831 | 26 | 250 | 0.0 | 3.2 | 0.00 | 0.00 | 0.00 | 87 | 1019.8 |
| 20260830231335 | 26 | 250 | 0.0 | 1.6 | 0.00 | 0.00 | 0.00 | 88 | 1019.8 |
| 20260830230832 | 26 | 250 | 0.0 | 1.6 | 0.00 | 0.00 | 0.00 | 88 | 1019.8 |
| 20260830230334 | 26 | 250 | 0.0 | 1.6 | 0.00 | 0.00 | 0.00 | 88 | 1019.8 |
| 20260830225835 | 26 | 250 | 0.0 | 1.6 | 0.00 | 0.00 | 0.00 | 88 | 1019.7 |
| 20260830224823 | 26 | 250 | 0.0 | 3.2 | 0.00 | 0.00 | 0.00 | 87 | 1019.5 |
| 20260830224316 | 27 | 250 | 0.0 | 3.2 | 0.00 | 0.00 | 0.00 | 87 | 1019.5 |
| 20260830223812 | 27 | 250 | 0.0 | 3.2 | 0.00 | 0.00 | 0.00 | 87 | 1019.8 |
| 20260830223316 | 27 | 250 | 0.0 | 1.6 | 0.00 | 0.00 | 0.00 | 87 | 1019.8 |
| 20260830222813 | 27 | 250 | 0.0 | 1.6 | 0.00 | 0.00 | 0.00 | 87 | 1019.8 |
| 20260830222312 | 27 | 250 | 0.0 | 1.6 | 0.00 | 0.00 | 0.00 | 87 | 1019.7 |
| 20260830221807 | 27 | 250 | 0.0 | 1.6 | 0.00 | 0.00 | 0.00 | 87 | 1019.6 |
| 20260830220805 | 27 | 250 | 0.0 | 1.6 | 0.00 | 0.00 | 0.00 | 86 | 1019.4 |
| 20260830215813 | 27 | 250 | 0.0 | 1.6 | 0.00 | 0.00 | 0.00 | 85 | 1019.4 |
| 20260830215306 | 27 | 250 | 0.0 | 3.2 | 0.00 | 0.00 | 0.00 | 86 | 1019.3 |
| 20260830214801 | 27 | 250 | 0.0 | 3.2 | 0.00 | 0.00 | 0.00 | 86 | 1019.4 |
| 20260830213800 | 27 | 250 | 0.0 | 3.2 | 0.00 | 0.00 | 0.00 | 86 | 1019.5 |
| 20260830212759 | 27 | 249 | 0.0 | 3.2 | 0.00 | 0.00 | 0.00 | 86 | 1019.5 |
| 20260830212258 | 27 | 249 | 0.0 | 3.2 | 0.00 | 0.00 | 0.00 | 86 | 1019.5 |
| 20260830211806 | 28 | 249 | 0.0 | 3.2 | 0.00 | 0.00 | 0.00 | 85 | 1019.4 |
| 20260830211301 | 28 | 249 | 0.0 | 3.2 | 0.00 | 0.00 | 0.00 | 85 | 1019.4 |
| 20260830210801 | 28 | 249 | 0.0 | 1.6 | 0.00 | 0.00 | 0.00 | 85 | 1019.5 |
| 20260830205801 | 28 | 249 | 0.0 | 3.2 | 0.00 | 0.00 | 0.00 | 84 | 1019.5 |
| 20260830205255 | 28 | 249 | 0.0 | 3.2 | 0.00 | 0.00 | 0.00 | 85 | 1019.3 |
| 20260830204259 | 28 | 249 | 0.0 | 1.6 | 0.00 | 0.00 | 0.00 | 84 | 1019.4 |
| 20260830203754 | 28 | 249 | 0.0 | 3.2 | 0.00 | 0.00 | 0.00 | 85 | 1019.3 |
| 20260830202755 | 28 | 249 | 0.0 | 1.6 | 0.00 | 0.00 | 0.00 | 84 | 1019.3 |
| 20260830202257 | 28 | 249 | 0.0 | 3.2 | 0.00 | 0.00 | 0.00 | 84 | 1019.4 |
| 20260830201758 | 28 | 249 | 0.0 | 3.2 | 0.00 | 0.00 | 0.00 | 84 | 1019.5 |
| 20260830201259 | 28 | 249 | 0.0 | 1.6 | 0.00 | 0.00 | 0.00 | 84 | 1019.5 |
| 20260830200759 | 28 | 249 | 0.0 | 1.6 | 0.00 | 0.00 | 0.00 | 85 | 1019.6 |
| 20260830200255 | 28 | 248 | 0.0 | 3.2 | 0.00 | 0.00 | 0.00 | 84 | 1019.7 |
| 20260830195255 | 28 | 248 | 0.0 | 3.2 | 0.00 | 0.00 | 0.00 | 84 | 1019.7 |
| 20260830194253 | 28 | 248 | 0.0 | 1.6 | 0.00 | 0.00 | 0.00 | 86 | 1019.7 |
| 20260830193749 | 28 | 248 | 0.0 | 1.6 | 0.00 | 0.00 | 0.00 | 86 | 1019.8 |
| 20260830192315 | 28 | 250 | 1.6 | 3.2 | 0.00 | 0.00 | 0.00 | 85 | 1020.1 |
| 20260830191749 | 28 | 250 | 0.0 | 3.2 | 0.00 | 0.00 | 0.00 | 87 | 1020.2 |
| 20260830191247 | 28 | 250 | 0.0 | 3.2 | 0.00 | 0.00 | 0.00 | 84 | 1020.3 |
| 20260830190746 | 28 | 250 | 0.0 | 3.2 | 0.00 | 0.00 | 0.00 | 83 | 1020.4 |
| 20260830190250 | 28 | 250 | 0.0 | 3.2 | 0.00 | 0.00 | 0.00 | 83 | 1020.6 |
| 20260830185236 | 28 | 246 | 0.0 | 3.2 | 0.00 | 0.00 | 0.00 | 85 | 1020.6 |
| 20260830184735 | 28 | 246 | 0.0 | 3.2 | 0.00 | 0.00 | 0.00 | 85 | 1020.8 |
| 20260830184237 | 28 | 246 | 0.0 | 3.2 | 0.00 | 0.00 | 0.00 | 83 | 1021.0 |
| 20260830183735 | 28 | 246 | 0.0 | 3.2 | 0.00 | 0.00 | 0.00 | 85 | 1020.9 |
| 20260830183233 | 28 | 250 | 0.0 | 3.2 | 0.00 | 0.00 | 0.00 | 83 | 1021.0 |
| 20260830182730 | 28 | 249 | 0.0 | 3.2 | 0.00 | 0.00 | 0.00 | 83 | 1021.0 |
| 20260830182234 | 28 | 249 | 0.0 | 3.2 | 0.00 | 0.00 | 0.00 | 84 | 1021.0 |
| 20260830181733 | 28 | 248 | 0.0 | 3.2 | 0.00 | 0.00 | 0.00 | 84 | 1021.2 |
| 20260830181238 | 28 | 248 | 0.0 | 3.2 | 0.00 | 0.03 | 0.00 | 83 | 1021.2 |
| 20260830180731 | 28 | 248 | 0.0 | 3.2 | 0.00 | 0.03 | 0.00 | 83 | 1021.1 |
| 20260830175234 | 28 | 246 | 0.0 | 3.2 | 0.00 | 0.03 | 0.00 | 84 | 1021.5 |
| 20260830174729 | 28 | 246 | 0.0 | 3.2 | 0.00 | 0.03 | 0.00 | 84 | 1021.5 |
| 20260830174232 | 28 | 246 | 0.0 | 3.2 | 0.00 | 0.03 | 0.00 | 83 | 1021.6 |
| 20260830173733 | 27 | 225 | 0.0 | 3.2 | 0.00 | 0.03 | 0.00 | 83 | 1021.6 |
| 20260830172730 | 27 | 225 | 0.0 | 3.2 | 0.00 | 0.03 | 0.00 | 83 | 1021.7 |
| 20260830171731 | 27 | 225 | 1.6 | 3.2 | 0.00 | 0.03 | 0.00 | 82 | 1021.8 |
| 20260830171232 | 27 | 212 | 0.0 | 4.8 | 0.00 | 0.03 | 0.00 | 83 | 1021.7 |
| 20260830170735 | 27 | 212 | 0.0 | 4.8 | 0.00 | 0.03 | 0.00 | 83 | 1021.8 |
| 20260830170235 | 27 | 211 | 1.6 | 3.2 | 0.00 | 0.03 | 0.00 | 83 | 1021.9 |
| 20260830165733 | 27 | 210 | 0.0 | 3.2 | 0.00 | 0.03 | 0.00 | 83 | 1021.9 |
| 20260830165229 | 27 | 210 | 0.0 | 3.2 | 0.00 | 0.03 | 0.00 | 84 | 1022.0 |
| 20260830164730 | 27 | 210 | 0.0 | 3.2 | 0.00 | 0.03 | 0.00 | 83 | 1022.1 |
| 20260830164232 | 27 | 210 | 0.0 | 3.2 | 0.00 | 0.03 | 0.00 | 84 | 1022.0 |
| 20260830163728 | 27 | 210 | 1.6 | 3.2 | 0.00 | 0.03 | 0.00 | 83 | 1022.1 |
| 20260830163232 | 27 | 210 | 1.6 | 3.2 | 0.00 | 0.03 | 0.00 | 84 | 1022.2 |
| 20260830162736 | 27 | 209 | 0.0 | 3.2 | 0.00 | 0.03 | 0.00 | 85 | 1022.1 |
| 20260830162232 | 27 | 202 | 0.0 | 3.2 | 0.00 | 0.03 | 0.00 | 85 | 1022.1 |
| 20260830161729 | 27 | 200 | 0.0 | 1.6 | 0.00 | 0.03 | 0.00 | 84 | 1022.3 |
| 20260830160732 | 26 | 200 | 0.0 | 3.2 | 0.00 | 0.03 | 0.00 | 83 | 1022.5 |
| 20260830160233 | 26 | 200 | 0.0 | 3.2 | 0.00 | 0.03 | 0.00 | 84 | 1022.5 |
| 20260830155729 | 26 | 200 | 0.0 | 3.2 | 0.00 | 0.03 | 0.00 | 83 | 1022.5 |
| 20260830155235 | 26 | 200 | 0.0 | 3.2 | 0.00 | 0.03 | 0.00 | 85 | 1022.5 |
| 20260830154730 | 26 | 200 | 0.0 | 3.2 | 0.00 | 0.03 | 0.00 | 84 | 1022.5 |
| 20260830153732 | 26 | 198 | 0.0 | 3.2 | 0.00 | 0.03 | 0.00 | 85 | 1022.6 |
| 20260830153235 | 26 | 198 | 0.0 | 3.2 | 0.00 | 0.03 | 0.00 | 85 | 1022.6 |
| 20260830152729 | 26 | 198 | 0.0 | 3.2 | 0.00 | 0.03 | 0.00 | 84 | 1022.7 |
| 20260830152232 | 26 | 198 | 0.0 | 1.6 | 0.00 | 0.03 | 0.00 | 85 | 1022.7 |
| 20260830151731 | 26 | 197 | 0.0 | 3.2 | 0.00 | 0.03 | 0.00 | 86 | 1022.7 |
| 20260830151229 | 26 | 197 | 0.0 | 3.2 | 0.00 | 0.03 | 0.00 | 85 | 1022.7 |
| 20260830150728 | 25 | 190 | 0.0 | 3.2 | 0.00 | 0.03 | 0.00 | 85 | 1022.7 |
| 20260830150233 | 25 | 190 | 0.0 | 3.2 | 0.00 | 0.03 | 0.00 | 87 | 1022.7 |
| 20260830145737 | 25 | 190 | 0.0 | 3.2 | 0.00 | 0.03 | 0.00 | 86 | 1022.7 |
| 20260830145234 | 25 | 190 | 0.0 | 3.2 | 0.00 | 0.03 | 0.00 | 86 | 1022.8 |
| 20260830144731 | 25 | 190 | 0.0 | 3.2 | 0.00 | 0.03 | 0.00 | 86 | 1022.9 |
| 20260830144229 | 25 | 190 | 0.0 | 3.2 | 0.00 | 0.03 | 0.00 | 86 | 1022.7 |
| 20260830143729 | 25 | 190 | 0.0 | 3.2 | 0.00 | 0.03 | 0.00 | 88 | 1022.8 |
| 20260830142233 | 24 | 190 | 0.0 | 3.2 | 0.00 | 0.03 | 0.00 | 88 | 1023.0 |
| 20260830141731 | 24 | 190 | 0.0 | 1.6 | 0.00 | 0.03 | 0.00 | 88 | 1023.0 |
| 20260830141231 | 24 | 190 | 0.0 | 3.2 | 0.00 | 0.03 | 0.00 | 88 | 1023.0 |
| 20260830140747 | 24 | 190 | 0.0 | 3.2 | 0.00 | 0.03 | 0.00 | 89 | 1023.0 |
| 20260830135732 | 24 | 190 | 0.0 | 3.2 | 0.00 | 0.03 | 0.00 | 89 | 1023.0 |
| 20260830135231 | 23 | 190 | 0.0 | 1.6 | 0.00 | 0.03 | 0.00 | 89 | 1023.1 |
| 20260830134229 | 23 | 190 | 0.0 | 1.6 | 0.00 | 0.03 | 0.00 | 91 | 1023.2 |
| 20260830133234 | 23 | 190 | 0.0 | 0.0 | 0.00 | 0.03 | 0.00 | 92 | 1023.4 |
| 20260830132728 | 23 | 190 | 0.0 | 1.6 | 0.00 | 0.03 | 0.00 | 93 | 1023.4 |
| 20260830132232 | 23 | 190 | 0.0 | 1.6 | 0.00 | 0.03 | 0.00 | 94 | 1023.5 |
| 20260830131232 | 22 | 190 | 0.0 | 0.0 | 0.00 | 0.03 | 0.00 | 96 | 1023.6 |
| 20260830130723 | 22 | 190 | 0.0 | 0.0 | 0.00 | 0.03 | 0.00 | 98 | 1023.6 |
| 20260830130219 | 22 | 190 | 0.0 | 1.6 | 0.00 | 0.03 | 0.00 | 99 | 1023.6 |
| 20260830125716 | 21 | 190 | 0.0 | 4.8 | 0.00 | 0.03 | 0.00 | 100 | 1023.6 |
| 20260830125209 | 21 | 190 | 0.0 | 4.8 | 0.00 | 0.03 | 0.00 | 100 | 1023.6 |
| 20260830123652 | 21 | 190 | 0.0 | 0.0 | 0.00 | 0.03 | 0.00 | 100 | 1023.7 |
| 20260830123143 | 21 | 190 | 0.0 | 0.0 | 0.00 | 0.03 | 0.00 | 100 | 1023.7 |
| 20260830122643 | 21 | 190 | 0.0 | 0.0 | 0.00 | 0.03 | 0.00 | 100 | 1023.7 |
| 20260830122133 | 20 | 190 | 0.0 | 0.0 | 0.00 | 0.03 | 0.00 | 100 | 1023.6 |
| 20260830121635 | 20 | 190 | 0.0 | 0.0 | 0.00 | 0.03 | 0.00 | 100 | 1023.6 |
| 20260830121133 | 20 | 190 | 0.0 | 0.0 | 0.00 | 0.03 | 0.00 | 100 | 1023.6 |
| 20260830120632 | 20 | 190 | 0.0 | 0.0 | 0.00 | 0.03 | 0.00 | 100 | 1023.6 |
| 20260830115631 | 19 | 190 | 0.0 | 0.0 | 0.00 | 0.03 | 0.00 | 99 | 1023.6 |
| 20260830115134 | 19 | 190 | 0.0 | 0.0 | 0.00 | 0.03 | 0.00 | 99 | 1023.7 |
| 20260830114632 | 19 | 190 | 0.0 | 0.0 | 0.00 | 0.03 | 0.00 | 99 | 1023.6 |
| 20260830114134 | 19 | 190 | 0.0 | 0.0 | 0.00 | 0.03 | 0.00 | 99 | 1023.5 |
| 20260830113631 | 18 | 190 | 0.0 | 0.0 | 0.00 | 0.03 | 0.00 | 99 | 1023.5 |
| 20260830113134 | 18 | 190 | 0.0 | 0.0 | 0.00 | 0.03 | 0.00 | 99 | 1023.5 |
| 20260830112633 | 18 | 190 | 0.0 | 0.0 | 0.00 | 0.03 | 0.00 | 99 | 1023.5 |
| 20260830112131 | 18 | 190 | 0.0 | 0.0 | 0.00 | 0.03 | 0.00 | 99 | 1023.5 |
| 20260830111631 | 18 | 190 | 0.0 | 0.0 | 0.00 | 0.03 | 0.00 | 99 | 1023.8 |
| 20260830111131 | 18 | 190 | 0.0 | 0.0 | 0.00 | 0.03 | 0.00 | 99 | 1023.8 |
| 20260830110634 | 18 | 190 | 0.0 | 0.0 | 0.00 | 0.03 | 0.00 | 99 | 1023.7 |
| 20260830110131 | 18 | 190 | 0.0 | 0.0 | 0.00 | 0.03 | 0.00 | 99 | 1023.7 |
| 20260830105630 | 18 | 190 | 0.0 | 0.0 | 0.00 | 0.03 | 0.00 | 99 | 1023.8 |
| 20260830105130 | 18 | 190 | 0.0 | 0.0 | 0.00 | 0.03 | 0.00 | 99 | 1023.8 |
| 20260830104632 | 18 | 190 | 0.0 | 0.0 | 0.00 | 0.03 | 0.00 | 99 | 1023.8 |
| 20260830104131 | 18 | 190 | 0.0 | 0.0 | 0.00 | 0.03 | 0.00 | 99 | 1023.9 |
| 20260830103632 | 18 | 190 | 0.0 | 0.0 | 0.00 | 0.03 | 0.00 | 99 | 1023.6 |
| 20260830102636 | 18 | 190 | 0.0 | 0.0 | 0.00 | 0.03 | 0.00 | 99 | 1023.6 |
| 20260830102132 | 18 | 190 | 0.0 | 0.0 | 0.00 | 0.03 | 0.00 | 99 | 1023.4 |
| 20260830101634 | 18 | 190 | 0.0 | 0.0 | 0.00 | 0.03 | 0.00 | 99 | 1023.6 |
| 20260830101133 | 18 | 190 | 0.0 | 0.0 | 0.00 | 0.03 | 0.00 | 99 | 1023.6 |
| 20260830100132 | 18 | 190 | 0.0 | 0.0 | 0.00 | 0.03 | 0.00 | 98 | 1023.5 |
| 20260830095634 | 18 | 190 | 0.0 | 0.0 | 0.00 | 0.03 | 0.00 | 98 | 1023.5 |
| 20260830095132 | 18 | 190 | 0.0 | 0.0 | 0.00 | 0.03 | 0.00 | 98 | 1023.5 |
| 20260830094635 | 18 | 190 | 0.0 | 0.0 | 0.00 | 0.03 | 0.00 | 98 | 1023.5 |
| 20260830094133 | 18 | 190 | 0.0 | 0.0 | 0.00 | 0.03 | 0.00 | 98 | 1023.6 |
| 20260830093630 | 18 | 190 | 0.0 | 0.0 | 0.00 | 0.03 | 0.00 | 98 | 1023.7 |
| 20260830093131 | 18 | 190 | 0.0 | 0.0 | 0.00 | 0.03 | 0.00 | 98 | 1023.7 |
| 20260830092629 | 18 | 190 | 0.0 | 0.0 | 0.00 | 0.03 | 0.00 | 98 | 1023.6 |
| 20260830092131 | 18 | 190 | 0.0 | 0.0 | 0.00 | 0.03 | 0.00 | 98 | 1023.6 |
| 20260830091648 | 18 | 190 | 0.0 | 0.0 | 0.00 | 0.03 | 0.00 | 98 | 1023.6 |
| 20260830090131 | 18 | 190 | 0.0 | 0.0 | 0.00 | 0.03 | 0.00 | 98 | 1023.5 |
| 20260830085631 | 18 | 190 | 0.0 | 0.0 | 0.00 | 0.03 | 0.00 | 98 | 1023.5 |
| 20260830084624 | 18 | 190 | 0.0 | 0.0 | 0.00 | 0.03 | 0.00 | 98 | 1023.5 |
| 20260830084124 | 18 | 190 | 0.0 | 0.0 | 0.00 | 0.03 | 0.00 | 98 | 1023.3 |
| 20260830083619 | 18 | 190 | 0.0 | 0.0 | 0.00 | 0.03 | 0.00 | 98 | 1023.3 |
| 20260830082616 | 18 | 190 | 0.0 | 0.0 | 0.00 | 0.03 | 0.00 | 98 | 1023.3 |
| 20260830082115 | 18 | 190 | 0.0 | 0.0 | 0.00 | 0.03 | 0.00 | 98 | 1023.4 |
| 20260830081609 | 18 | 190 | 0.0 | 0.0 | 0.00 | 0.03 | 0.00 | 98 | 1023.4 |
| 20260830081108 | 18 | 190 | 0.0 | 0.0 | 0.00 | 0.03 | 0.00 | 98 | 1023.3 |
| 20260830080607 | 18 | 190 | 0.0 | 0.0 | 0.00 | 0.03 | 0.00 | 98 | 1023.3 |
| 20260830080108 | 18 | 190 | 0.0 | 0.0 | 0.00 | 0.03 | 0.00 | 98 | 1023.2 |
| 20260830075607 | 18 | 190 | 0.0 | 0.0 | 0.00 | 0.03 | 0.00 | 98 | 1023.2 |
| 20260830075119 | 18 | 190 | 0.0 | 0.0 | 0.00 | 0.03 | 0.00 | 98 | 1023.1 |
| 20260830074106 | 18 | 190 | 0.0 | 0.0 | 0.00 | 0.03 | 0.00 | 98 | 1023.1 |
| 20260830073605 | 18 | 190 | 0.0 | 0.0 | 0.00 | 0.03 | 0.00 | 98 | 1023.2 |
| 20260830073106 | 18 | 190 | 0.0 | 0.0 | 0.00 | 0.03 | 0.00 | 98 | 1023.2 |
| 20260830072556 | 18 | 190 | 0.0 | 0.0 | 0.00 | 0.03 | 0.00 | 98 | 1023.3 |
| 20260830071545 | 18 | 190 | 0.0 | 0.0 | 0.00 | 0.03 | 0.00 | 98 | 1023.6 |
| 20260830071045 | 19 | 190 | 0.0 | 0.0 | 0.00 | 0.03 | 0.00 | 98 | 1023.5 |
| 20260830070546 | 19 | 190 | 0.0 | 0.0 | 0.00 | 0.03 | 0.00 | 98 | 1023.5 |
| 20260830070040 | 19 | 190 | 0.0 | 0.0 | 0.00 | 0.03 | 0.00 | 98 | 1023.6 |
| 20260830065537 | 19 | 190 | 0.0 | 0.0 | 0.00 | 0.03 | 0.00 | 98 | 1023.7 |
| 20260830065041 | 19 | 190 | 0.0 | 0.0 | 0.00 | 0.03 | 0.00 | 98 | 1023.6 |
| 20260830064535 | 19 | 190 | 0.0 | 0.0 | 0.00 | 0.03 | 0.00 | 98 | 1023.6 |
| 20260830064033 | 19 | 190 | 0.0 | 0.0 | 0.00 | 0.03 | 0.00 | 98 | 1023.6 |
| 20260830063532 | 19 | 190 | 0.0 | 0.0 | 0.00 | 0.03 | 0.00 | 98 | 1023.7 |
| 20260830063039 | 19 | 190 | 0.0 | 0.0 | 0.00 | 0.03 | 0.00 | 98 | 1023.6 |
| 20260830062530 | 19 | 190 | 0.0 | 0.0 | 0.00 | 0.03 | 0.00 | 98 | 1023.7 |
| 20260830062031 | 19 | 190 | 0.0 | 0.0 | 0.00 | 0.03 | 0.00 | 98 | 1023.7 |
| 20260830061530 | 19 | 190 | 0.0 | 0.0 | 0.00 | 0.03 | 0.00 | 97 | 1023.7 |
| 20260830061034 | 19 | 190 | 0.0 | 0.0 | 0.00 | 0.03 | 0.00 | 97 | 1023.7 |
| 20260830060531 | 19 | 190 | 0.0 | 0.0 | 0.00 | 0.03 | 0.00 | 97 | 1023.7 |
| 20260830060032 | 19 | 190 | 0.0 | 0.0 | 0.00 | 0.03 | 0.00 | 97 | 1023.7 |
| 20260830055531 | 19 | 190 | 0.0 | 0.0 | 0.00 | 0.03 | 0.00 | 97 | 1023.7 |
| 20260830055033 | 19 | 190 | 0.0 | 0.0 | 0.00 | 0.03 | 0.00 | 97 | 1023.7 |
| 20260830054531 | 19 | 190 | 0.0 | 0.0 | 0.00 | 0.03 | 0.00 | 97 | 1023.9 |
| 20260830054035 | 18 | 190 | 0.0 | 0.0 | 0.00 | 0.03 | 0.00 | 97 | 1023.9 |
| 20260830053535 | 19 | 190 | 0.0 | 0.0 | 0.00 | 0.03 | 0.00 | 97 | 1023.9 |
| 20260830053028 | 19 | 190 | 0.0 | 0.0 | 0.00 | 0.03 | 0.00 | 97 | 1024.0 |
| 20260830052526 | 19 | 190 | 0.0 | 0.0 | 0.00 | 0.03 | 0.00 | 97 | 1024.0 |
| 20260830052027 | 19 | 190 | 0.0 | 0.0 | 0.00 | 0.03 | 0.00 | 96 | 1024.0 |
| 20260830051528 | 19 | 190 | 0.0 | 0.0 | 0.00 | 0.03 | 0.00 | 96 | 1024.0 |
| 20260830051025 | 19 | 190 | 0.0 | 0.0 | 0.00 | 0.03 | 0.00 | 96 | 1024.0 |
| 20260830050528 | 19 | 190 | 0.0 | 0.0 | 0.00 | 0.03 | 0.00 | 96 | 1023.9 |
| 20260830050026 | 19 | 190 | 0.0 | 0.0 | 0.00 | 0.03 | 0.00 | 96 | 1023.8 |